GLD1782 SSCI-SBBW

Flight info

Callsign GLD1782
Flight time 1h 19m
Altitude 5500
Route 180604S/0543302W 171242S/0540754W 165652S/0533136W DCT
Aircraft AEST/L-SDFGIRY/S

Departure

Time 2026-05-05 17:03
Airport Coxim Airport (SSCI)

Arrival

Time 2026-05-05 18:22
Airport Barra do Garças Airport (SBBW)
Time Latitude Longitude Altitude Speed Heading
2026-05-05 16:46 -18.47355 -54.71615 964 ft 0 kts 103°
2026-05-05 16:58 -18.47355 -54.71613 972 ft 0 kts 81°
2026-05-05 16:58 -18.47342 -54.71599 964 ft 6 kts 49°
2026-05-05 16:58 -18.47362 -54.71514 964 ft 18 kts 111°
2026-05-05 16:59 -18.47404 -54.71407 963 ft 18 kts 163°
2026-05-05 16:59 -18.47558 -54.71420 966 ft 26 kts 186°
2026-05-05 16:59 -18.47766 -54.71453 967 ft 33 kts 188°
2026-05-05 16:59 -18.48011 -54.71493 969 ft 36 kts 187°
2026-05-05 17:00 -18.48237 -54.71530 970 ft 22 kts 185°
2026-05-05 17:00 -18.48311 -54.71537 969 ft 4 kts 172°
2026-05-05 17:00 -18.48344 -54.71551 966 ft 7 kts 346°
2026-05-05 17:00 -18.48321 -54.71549 968 ft 0 kts
2026-05-05 17:01 -18.48320 -54.71549 968 ft 3 kts
2026-05-05 17:02 -18.48250 -54.71541 970 ft 43 kts
2026-05-05 17:02 -18.47726 -54.71457 990 ft 97 kts 10°
2026-05-05 17:02 -18.47027 -54.71293 1174 ft 114 kts 15°
2026-05-05 17:02 -18.46236 -54.71044 1468 ft 118 kts 18°
2026-05-05 17:03 -18.45445 -54.70713 1622 ft 124 kts 35°
2026-05-05 17:03 -18.45083 -54.69958 1905 ft 123 kts 90°
2026-05-05 17:03 -18.45548 -54.69171 2082 ft 142 kts 148°
2026-05-05 17:03 -18.46547 -54.68990 2247 ft 156 kts 181°
2026-05-05 17:04 -18.47683 -54.69051 2365 ft 166 kts 188°
2026-05-05 17:04 -18.48827 -54.69227 2522 ft 173 kts 189°
2026-05-05 17:04 -18.50084 -54.69418 2602 ft 189 kts 189°
2026-05-05 17:04 -18.51402 -54.69630 2711 ft 192 kts 190°
2026-05-05 17:05 -18.52710 -54.69841 2831 ft 193 kts 188°
2026-05-05 17:05 -18.54036 -54.69703 3020 ft 194 kts 158°
2026-05-05 17:05 -18.55245 -54.69089 3223 ft 193 kts 152°
2026-05-05 17:05 -18.56440 -54.68441 3363 ft 192 kts 150°
2026-05-05 17:06 -18.57625 -54.67794 3531 ft 191 kts 151°
2026-05-05 17:06 -18.58808 -54.67148 3705 ft 191 kts 150°
2026-05-05 17:06 -18.59986 -54.66502 3858 ft 190 kts 150°
2026-05-05 17:06 -18.61179 -54.65849 4018 ft 190 kts 151°
2026-05-05 17:07 -18.62358 -54.65205 4140 ft 191 kts 151°
2026-05-05 17:07 -18.63540 -54.64565 4269 ft 191 kts 151°
2026-05-05 17:07 -18.64719 -54.63922 4440 ft 190 kts 151°
2026-05-05 17:07 -18.65893 -54.63290 4562 ft 189 kts 152°
2026-05-05 17:08 -18.67065 -54.62662 4718 ft 189 kts 151°
2026-05-05 17:08 -18.68317 -54.62332 4852 ft 187 kts 182°
2026-05-05 17:08 -18.69590 -54.62398 5037 ft 185 kts 168°
2026-05-05 17:08 -18.70704 -54.61767 5182 ft 182 kts 132°
2026-05-05 17:09 -18.71287 -54.60627 5352 ft 175 kts 96°
2026-05-05 17:09 -18.71166 -54.59386 5493 ft 169 kts 62°
2026-05-05 17:09 -18.70725 -54.58731 5585 ft 165 kts 39°
2026-05-05 17:09 -18.69717 -54.58234 5743 ft 161 kts
2026-05-05 17:10 -18.68253 -54.58203 5948 ft 157 kts 360°
2026-05-05 17:10 -18.67163 -54.58299 6070 ft 159 kts 342°
2026-05-05 17:10 -18.66479 -54.58641 6101 ft 164 kts 333°
2026-05-05 17:10 -18.65465 -54.59277 6061 ft 174 kts 331°
2026-05-05 17:11 -18.64418 -54.59953 5994 ft 182 kts 328°
2026-05-05 17:11 -18.63411 -54.60790 5940 ft 188 kts 322°
2026-05-05 17:11 -18.62397 -54.61701 5839 ft 195 kts 322°
2026-05-05 17:11 -18.61339 -54.62648 5680 ft 202 kts 322°
2026-05-05 17:12 -18.60258 -54.63614 5569 ft 205 kts 322°
2026-05-05 17:12 -18.59160 -54.64590 5491 ft 206 kts 322°
2026-05-05 17:12 -18.58083 -54.65544 5536 ft 203 kts 322°
2026-05-05 17:12 -18.56999 -54.66507 5544 ft 205 kts 322°
2026-05-05 17:13 -18.55907 -54.67486 5527 ft 206 kts 322°
2026-05-05 17:13 -18.54807 -54.68459 5539 ft 207 kts 325°
2026-05-05 17:13 -18.53599 -54.69287 5520 ft 206 kts 332°
2026-05-05 17:13 -18.52342 -54.70008 5525 ft 205 kts 334°
2026-05-05 17:14 -18.51082 -54.70709 5528 ft 204 kts 334°
2026-05-05 17:14 -18.49827 -54.71409 5537 ft 204 kts 334°
2026-05-05 17:14 -18.48578 -54.72104 5530 ft 205 kts 334°
2026-05-05 17:14 -18.47304 -54.72792 5523 ft 206 kts 340°
2026-05-05 17:15 -18.45905 -54.72978 5517 ft 204 kts
2026-05-05 17:15 -18.44567 -54.72501 5524 ft 204 kts 23°
2026-05-05 17:15 -18.43272 -54.71870 5525 ft 204 kts 23°
2026-05-05 17:15 -18.41991 -54.71232 5515 ft 202 kts 24°
2026-05-05 17:16 -18.40728 -54.70585 5520 ft 202 kts 25°
2026-05-05 17:16 -18.39477 -54.69956 5528 ft 202 kts 23°
2026-05-05 17:16 -18.38206 -54.69311 5524 ft 204 kts 24°
2026-05-05 17:16 -18.36926 -54.68661 5529 ft 204 kts 24°
2026-05-05 17:17 -18.35645 -54.68011 5518 ft 205 kts 24°
2026-05-05 17:17 -18.34363 -54.67372 5531 ft 203 kts 24°
2026-05-05 17:17 -18.33081 -54.66728 5531 ft 205 kts 24°
2026-05-05 17:17 -18.31797 -54.66087 5520 ft 204 kts 23°
2026-05-05 17:18 -18.30500 -54.65485 5513 ft 204 kts 22°
2026-05-05 17:18 -18.29203 -54.64891 5534 ft 202 kts 22°
2026-05-05 17:18 -18.27922 -54.64287 5523 ft 205 kts 23°
2026-05-05 17:18 -18.26622 -54.63679 5524 ft 205 kts 23°
2026-05-05 17:19 -18.25324 -54.63062 5531 ft 205 kts 23°
2026-05-05 17:19 -18.24018 -54.62450 5522 ft 204 kts 23°
2026-05-05 17:19 -18.22718 -54.61832 5529 ft 204 kts 23°
2026-05-05 17:19 -18.21425 -54.61213 5518 ft 205 kts 24°
2026-05-05 17:20 -18.20150 -54.60553 5523 ft 203 kts 25°
2026-05-05 17:20 -18.18889 -54.59894 5525 ft 204 kts 25°
2026-05-05 17:20 -18.17617 -54.59230 5512 ft 204 kts 25°
2026-05-05 17:20 -18.16349 -54.58566 5532 ft 204 kts 25°
2026-05-05 17:21 -18.15069 -54.57903 5502 ft 204 kts 25°
2026-05-05 17:21 -18.13803 -54.57243 5528 ft 202 kts 25°
2026-05-05 17:21 -18.12553 -54.56589 5534 ft 203 kts 25°
2026-05-05 17:22 -18.10157 -54.54977 5533 ft 205 kts 30°
2026-05-05 17:22 -18.08900 -54.54261 5522 ft 206 kts 25°
2026-05-05 17:22 -18.07619 -54.53590 5519 ft 205 kts 26°
2026-05-05 17:22 -18.06338 -54.52923 5525 ft 206 kts 25°
2026-05-05 17:23 -18.05046 -54.52255 5505 ft 207 kts 24°
2026-05-05 17:23 -18.03761 -54.51587 5529 ft 205 kts 25°
2026-05-05 17:23 -18.02479 -54.50926 5518 ft 205 kts 25°
2026-05-05 17:23 -18.01215 -54.50268 5533 ft 205 kts 25°
2026-05-05 17:24 -17.99931 -54.49605 5533 ft 206 kts 25°
2026-05-05 17:24 -17.98633 -54.48942 5503 ft 207 kts 25°
2026-05-05 17:24 -17.97339 -54.48270 5524 ft 207 kts 25°
2026-05-05 17:24 -17.96046 -54.47596 5525 ft 208 kts 25°
2026-05-05 17:25 -17.94738 -54.46921 5516 ft 208 kts 25°
2026-05-05 17:25 -17.93875 -54.46477 5517 ft 207 kts 25°
2026-05-05 17:25 -17.92170 -54.45599 5513 ft 205 kts 25°
2026-05-05 17:25 -17.90888 -54.44937 5532 ft 205 kts 25°
2026-05-05 17:26 -17.89604 -54.44281 5517 ft 206 kts 24°
2026-05-05 17:26 -17.88308 -54.43649 5527 ft 204 kts 24°
2026-05-05 17:26 -17.87011 -54.43018 5519 ft 205 kts 24°
2026-05-05 17:26 -17.85733 -54.42391 5524 ft 205 kts 24°
2026-05-05 17:27 -17.84437 -54.41760 5510 ft 205 kts 24°
2026-05-05 17:27 -17.83152 -54.41132 5527 ft 202 kts 24°
2026-05-05 17:27 -17.81871 -54.40504 5522 ft 204 kts 24°
2026-05-05 17:27 -17.80588 -54.39875 5520 ft 204 kts 24°
2026-05-05 17:28 -17.79301 -54.39243 5526 ft 204 kts 24°
2026-05-05 17:28 -17.78006 -54.38608 5513 ft 205 kts 24°
2026-05-05 17:28 -17.76711 -54.37975 5536 ft 206 kts 25°
2026-05-05 17:28 -17.75440 -54.37284 5517 ft 204 kts 27°
2026-05-05 17:29 -17.74186 -54.36584 5534 ft 204 kts 27°
2026-05-05 17:29 -17.72929 -54.35880 5529 ft 206 kts 27°
2026-05-05 17:29 -17.71670 -54.35167 5521 ft 205 kts 26°
2026-05-05 17:29 -17.70409 -54.34467 5535 ft 204 kts 26°
2026-05-05 17:30 -17.69142 -54.33775 5526 ft 206 kts 26°
2026-05-05 17:30 -17.67884 -54.33090 5524 ft 206 kts 26°
2026-05-05 17:30 -17.66618 -54.32395 5522 ft 205 kts 26°
2026-05-05 17:30 -17.65354 -54.31695 5533 ft 205 kts 26°
2026-05-05 17:31 -17.64082 -54.30991 5539 ft 206 kts 27°
2026-05-05 17:31 -17.62816 -54.30288 5525 ft 206 kts 26°
2026-05-05 17:31 -17.61547 -54.29588 5540 ft 205 kts 26°
2026-05-05 17:31 -17.60287 -54.28899 5536 ft 207 kts 26°
2026-05-05 17:32 -17.59008 -54.28202 5530 ft 208 kts 26°
2026-05-05 17:32 -17.57723 -54.27500 5531 ft 208 kts 26°
2026-05-05 17:32 -17.56437 -54.26799 5532 ft 207 kts 26°
2026-05-05 17:32 -17.55156 -54.26102 5536 ft 208 kts 26°
2026-05-05 17:33 -17.53867 -54.25402 5528 ft 209 kts 26°
2026-05-05 17:33 -17.52576 -54.24700 5531 ft 207 kts 27°
2026-05-05 17:33 -17.51292 -54.23994 5532 ft 209 kts 27°
2026-05-05 17:33 -17.50005 -54.23281 5533 ft 209 kts 27°
2026-05-05 17:34 -17.48729 -54.22572 5535 ft 209 kts 27°
2026-05-05 17:34 -17.47434 -54.21855 5534 ft 210 kts 27°
2026-05-05 17:34 -17.46156 -54.21148 5529 ft 209 kts 27°
2026-05-05 17:34 -17.44872 -54.20442 5540 ft 208 kts 27°
2026-05-05 17:35 -17.43585 -54.19744 5551 ft 207 kts 27°
2026-05-05 17:35 -17.42305 -54.19047 5531 ft 207 kts 26°
2026-05-05 17:35 -17.41018 -54.18355 5534 ft 207 kts 27°
2026-05-05 17:35 -17.39724 -54.17668 5531 ft 207 kts 26°
2026-05-05 17:36 -17.38431 -54.16990 5525 ft 209 kts 25°
2026-05-05 17:36 -17.37116 -54.16404 5537 ft 208 kts 15°
2026-05-05 17:36 -17.35682 -54.16278 5548 ft 208 kts 359°
2026-05-05 17:36 -17.34220 -54.16338 5539 ft 212 kts 358°
2026-05-05 17:37 -17.32752 -54.16417 5529 ft 209 kts 358°
2026-05-05 17:37 -17.31789 -54.16468 5532 ft 209 kts 358°
2026-05-05 17:37 -17.29867 -54.16348 5552 ft 208 kts 17°
2026-05-05 17:37 -17.28521 -54.15798 5537 ft 209 kts 23°
2026-05-05 17:38 -17.27183 -54.15180 5521 ft 210 kts 24°
2026-05-05 17:38 -17.25860 -54.14560 5530 ft 208 kts 23°
2026-05-05 17:38 -17.24539 -54.13953 5564 ft 208 kts 23°
2026-05-05 17:38 -17.23210 -54.13338 5531 ft 208 kts 22°
2026-05-05 17:39 -17.21828 -54.12911 5532 ft 207 kts 24°
2026-05-05 17:39 -17.20709 -54.11993 5548 ft 208 kts 52°
2026-05-05 17:39 -17.20032 -54.10667 5543 ft 211 kts 65°
2026-05-05 17:39 -17.19462 -54.09239 5539 ft 211 kts 66°
2026-05-05 17:40 -17.18903 -54.07813 5546 ft 213 kts 66°
2026-05-05 17:40 -17.18346 -54.06374 5534 ft 214 kts 65°
2026-05-05 17:40 -17.17786 -54.04934 5542 ft 214 kts 66°
2026-05-05 17:40 -17.17236 -54.03508 5535 ft 214 kts 66°
2026-05-05 17:41 -17.16686 -54.02067 5544 ft 212 kts 67°
2026-05-05 17:41 -17.16145 -54.00638 5538 ft 210 kts 66°
2026-05-05 17:41 -17.15624 -53.99206 5542 ft 211 kts 69°
2026-05-05 17:41 -17.15126 -53.97760 5556 ft 211 kts 68°
2026-05-05 17:42 -17.14626 -53.96313 5538 ft 211 kts 69°
2026-05-05 17:42 -17.14129 -53.94871 5547 ft 211 kts 68°
2026-05-05 17:42 -17.13637 -53.93451 5547 ft 211 kts 69°
2026-05-05 17:42 -17.13142 -53.92003 5537 ft 212 kts 69°
2026-05-05 17:43 -17.12636 -53.90564 5554 ft 210 kts 68°
2026-05-05 17:43 -17.12098 -53.89138 5536 ft 211 kts 67°
2026-05-05 17:43 -17.11548 -53.87718 5541 ft 209 kts 66°
2026-05-05 17:43 -17.11001 -53.86329 5561 ft 209 kts 65°
2026-05-05 17:44 -17.10370 -53.84950 5542 ft 210 kts 57°
2026-05-05 17:44 -17.09599 -53.83661 5558 ft 208 kts 63°
2026-05-05 17:44 -17.09018 -53.82264 5558 ft 209 kts 66°
2026-05-05 17:44 -17.08466 -53.80840 5561 ft 212 kts 66°
2026-05-05 17:45 -17.07882 -53.79414 5553 ft 215 kts 64°
2026-05-05 17:45 -17.07222 -53.78013 5536 ft 214 kts 62°
2026-05-05 17:45 -17.06596 -53.76633 5545 ft 211 kts 64°
2026-05-05 17:45 -17.05961 -53.75252 5558 ft 210 kts 61°
2026-05-05 17:46 -17.05272 -53.73898 5543 ft 211 kts 60°
2026-05-05 17:46 -17.04573 -53.72552 5546 ft 209 kts 60°
2026-05-05 17:46 -17.03880 -53.71215 5551 ft 209 kts 60°
2026-05-05 17:46 -17.03190 -53.69878 5554 ft 209 kts 60°
2026-05-05 17:47 -17.02493 -53.68542 5556 ft 210 kts 61°
2026-05-05 17:47 -17.01801 -53.67217 5557 ft 209 kts 61°
2026-05-05 17:47 -17.01105 -53.65884 5555 ft 209 kts 60°
2026-05-05 17:47 -17.00413 -53.64546 5543 ft 209 kts 61°
2026-05-05 17:48 -16.99742 -53.63192 5560 ft 210 kts 62°
2026-05-05 17:48 -16.99071 -53.61829 5549 ft 211 kts 62°
2026-05-05 17:48 -16.98389 -53.60473 5553 ft 210 kts 62°
2026-05-05 17:48 -16.97705 -53.59117 5544 ft 211 kts 62°
2026-05-05 17:49 -16.97030 -53.57755 5544 ft 210 kts 62°
2026-05-05 17:49 -16.96369 -53.56420 5550 ft 209 kts 62°
2026-05-05 17:49 -16.95729 -53.55061 5553 ft 208 kts 65°
2026-05-05 17:49 -16.95159 -53.53664 5556 ft 209 kts 66°
2026-05-05 17:50 -16.94589 -53.52259 5557 ft 210 kts 63°
2026-05-05 17:50 -16.93715 -53.51060 5566 ft 210 kts 46°
2026-05-05 17:50 -16.92686 -53.49962 5552 ft 212 kts 45°
2026-05-05 17:50 -16.91648 -53.48872 5544 ft 212 kts 45°
2026-05-05 17:51 -16.90603 -53.47790 5561 ft 211 kts 45°
2026-05-05 17:51 -16.89554 -53.46711 5548 ft 211 kts 45°
2026-05-05 17:51 -16.88508 -53.45633 5550 ft 211 kts 45°
2026-05-05 17:51 -16.87458 -53.44557 5559 ft 212 kts 45°
2026-05-05 17:52 -16.86759 -53.43850 5549 ft 211 kts 45°
2026-05-05 17:52 -16.85699 -53.42762 5551 ft 210 kts 45°
2026-05-05 17:52 -16.84652 -53.41685 5545 ft 210 kts 45°
2026-05-05 17:52 -16.83608 -53.40610 5560 ft 212 kts 46°
2026-05-05 17:53 -16.82548 -53.39525 5552 ft 212 kts 45°
2026-05-05 17:53 -16.81491 -53.38445 5551 ft 211 kts 45°
2026-05-05 17:53 -16.80435 -53.37370 5555 ft 211 kts 45°
2026-05-05 17:53 -16.79391 -53.36297 5563 ft 210 kts 45°
2026-05-05 17:54 -16.78377 -53.35215 5535 ft 212 kts 47°
2026-05-05 17:54 -16.77384 -53.34086 5562 ft 211 kts 49°
2026-05-05 17:54 -16.76390 -53.32949 5550 ft 212 kts 49°
2026-05-05 17:54 -16.75392 -53.31819 5549 ft 211 kts 49°
2026-05-05 17:55 -16.74399 -53.30687 5544 ft 210 kts 48°
2026-05-05 17:55 -16.73411 -53.29559 5549 ft 209 kts 48°
2026-05-05 17:55 -16.72426 -53.28434 5559 ft 211 kts 48°
2026-05-05 17:55 -16.71432 -53.27303 5545 ft 211 kts 47°
2026-05-05 17:56 -16.70433 -53.26170 5541 ft 213 kts 48°
2026-05-05 17:56 -16.69444 -53.25044 5549 ft 212 kts 48°
2026-05-05 17:56 -16.68451 -53.23908 5554 ft 211 kts 48°
2026-05-05 17:56 -16.67460 -53.22772 5544 ft 211 kts 48°
2026-05-05 17:57 -16.66461 -53.21643 5551 ft 212 kts 48°
2026-05-05 17:57 -16.65455 -53.20504 5554 ft 215 kts 47°
2026-05-05 17:57 -16.64456 -53.19367 5535 ft 215 kts 48°
2026-05-05 17:57 -16.63444 -53.18217 5526 ft 213 kts 47°
2026-05-05 17:58 -16.62443 -53.17081 5547 ft 210 kts 48°
2026-05-05 17:58 -16.61445 -53.15956 5540 ft 211 kts 47°
2026-05-05 17:58 -16.60445 -53.14826 5556 ft 211 kts 48°
2026-05-05 17:58 -16.59456 -53.13712 5535 ft 212 kts 47°
2026-05-05 17:59 -16.58455 -53.12580 5542 ft 211 kts 48°
2026-05-05 17:59 -16.57468 -53.11458 5541 ft 209 kts 48°
2026-05-05 17:59 -16.56480 -53.10343 5542 ft 209 kts 48°
2026-05-05 17:59 -16.55486 -53.09223 5538 ft 210 kts 48°
2026-05-05 18:00 -16.54508 -53.08122 5542 ft 210 kts 47°
2026-05-05 18:00 -16.53511 -53.07002 5532 ft 210 kts 48°
2026-05-05 18:00 -16.52516 -53.05884 5542 ft 210 kts 48°
2026-05-05 18:00 -16.51523 -53.04770 5543 ft 210 kts 48°
2026-05-05 18:01 -16.50530 -53.03658 5541 ft 208 kts 48°
2026-05-05 18:01 -16.49545 -53.02544 5549 ft 209 kts 47°
2026-05-05 18:01 -16.48556 -53.01427 5548 ft 210 kts 48°
2026-05-05 18:01 -16.47559 -53.00303 5528 ft 211 kts 48°
2026-05-05 18:02 -16.46568 -52.99186 5545 ft 210 kts 47°
2026-05-05 18:02 -16.45571 -52.98066 5548 ft 211 kts 47°
2026-05-05 18:02 -16.44554 -52.96989 5534 ft 211 kts 46°
2026-05-05 18:02 -16.43502 -52.95919 5528 ft 211 kts 45°
2026-05-05 18:03 -16.42446 -52.94862 5535 ft 211 kts 44°
2026-05-05 18:03 -16.41386 -52.93797 5539 ft 212 kts 45°
2026-05-05 18:03 -16.40332 -52.92726 5529 ft 212 kts 45°
2026-05-05 18:03 -16.39270 -52.91662 5533 ft 211 kts 44°
2026-05-05 18:04 -16.38174 -52.90654 5527 ft 210 kts 33°
2026-05-05 18:04 -16.36801 -52.90146 5529 ft 213 kts
2026-05-05 18:04 -16.35319 -52.90218 5542 ft 215 kts
2026-05-05 18:04 -16.33894 -52.89802 5529 ft 213 kts 32°
2026-05-05 18:05 -16.32752 -52.88864 5528 ft 211 kts 43°
2026-05-05 18:05 -16.31652 -52.87826 5528 ft 210 kts 44°
2026-05-05 18:05 -16.30589 -52.86805 5541 ft 210 kts 45°
2026-05-05 18:05 -16.29530 -52.85748 5535 ft 211 kts 44°
2026-05-05 18:06 -16.28472 -52.84685 5538 ft 212 kts 45°
2026-05-05 18:06 -16.27768 -52.83981 5530 ft 211 kts 45°
2026-05-05 18:06 -16.26360 -52.82572 5526 ft 211 kts 45°
2026-05-05 18:06 -16.25294 -52.81515 5529 ft 211 kts 44°
2026-05-05 18:07 -16.24235 -52.80457 5533 ft 211 kts 45°
2026-05-05 18:07 -16.23167 -52.79395 5526 ft 212 kts 45°
2026-05-05 18:07 -16.22101 -52.78336 5533 ft 211 kts 45°
2026-05-05 18:07 -16.21040 -52.77270 5532 ft 212 kts 44°
2026-05-05 18:08 -16.19970 -52.76205 5530 ft 213 kts 45°
2026-05-05 18:08 -16.18929 -52.75096 5526 ft 213 kts 47°
2026-05-05 18:08 -16.17914 -52.74004 5522 ft 212 kts 47°
2026-05-05 18:08 -16.16888 -52.72906 5526 ft 212 kts 47°
2026-05-05 18:09 -16.15869 -52.71794 5534 ft 212 kts 49°
2026-05-05 18:09 -16.14877 -52.70666 5530 ft 211 kts 49°
2026-05-05 18:09 -16.13910 -52.69513 5522 ft 211 kts 51°
2026-05-05 18:09 -16.12975 -52.68365 5529 ft 209 kts 51°
2026-05-05 18:10 -16.12036 -52.67206 5522 ft 210 kts 51°
2026-05-05 18:10 -16.11092 -52.66040 5519 ft 210 kts 50°
2026-05-05 18:10 -16.10153 -52.64874 5522 ft 210 kts 51°
2026-05-05 18:10 -16.09209 -52.63710 5534 ft 210 kts 51°
2026-05-05 18:11 -16.08261 -52.62542 5529 ft 211 kts 51°
2026-05-05 18:11 -16.07309 -52.61378 5538 ft 212 kts 51°
2026-05-05 18:11 -16.06361 -52.60216 5533 ft 213 kts 51°
2026-05-05 18:11 -16.05396 -52.59040 5530 ft 213 kts 51°
2026-05-05 18:12 -16.04432 -52.57872 5543 ft 212 kts 51°
2026-05-05 18:12 -16.03473 -52.56701 5536 ft 212 kts 50°
2026-05-05 18:12 -16.02511 -52.55542 5537 ft 211 kts 51°
2026-05-05 18:12 -16.01557 -52.54374 5528 ft 211 kts 51°
2026-05-05 18:13 -16.00621 -52.53229 5537 ft 211 kts 51°
2026-05-05 18:13 -15.99662 -52.52063 5528 ft 212 kts 51°
2026-05-05 18:13 -15.98708 -52.50901 5533 ft 211 kts 51°
2026-05-05 18:13 -15.97763 -52.49743 5545 ft 205 kts 51°
2026-05-05 18:14 -15.96847 -52.48625 5475 ft 200 kts 51°
2026-05-05 18:14 -15.95951 -52.47532 5377 ft 197 kts 51°
2026-05-05 18:14 -15.95059 -52.46462 5269 ft 194 kts 50°
2026-05-05 18:14 -15.94208 -52.45451 5145 ft 182 kts 51°
2026-05-05 18:15 -15.93401 -52.44490 5003 ft 169 kts 51°
2026-05-05 18:15 -15.92647 -52.43595 4797 ft 159 kts 50°
2026-05-05 18:15 -15.91935 -52.42763 4576 ft 150 kts 51°
2026-05-05 18:15 -15.91251 -52.41973 4332 ft 144 kts 51°
2026-05-05 18:16 -15.90587 -52.41202 4096 ft 142 kts 51°
2026-05-05 18:16 -15.89853 -52.40535 3881 ft 140 kts 36°
2026-05-05 18:16 -15.89042 -52.39994 3704 ft 137 kts 36°
2026-05-05 18:16 -15.88296 -52.39395 3519 ft 134 kts 47°
2026-05-05 18:17 -15.87653 -52.38702 3352 ft 134 kts 49°
2026-05-05 18:17 -15.87001 -52.38005 3180 ft 134 kts 49°
2026-05-05 18:17 -15.86338 -52.37304 2989 ft 137 kts 49°
2026-05-05 18:17 -15.85681 -52.36598 2796 ft 135 kts 49°
2026-05-05 18:18 -15.84848 -52.36157 2569 ft 141 kts
2026-05-05 18:18 -15.83899 -52.36412 2356 ft 147 kts 330°
2026-05-05 18:18 -15.83178 -52.37127 2272 ft 137 kts 297°
2026-05-05 18:18 -15.83193 -52.38039 2231 ft 130 kts 242°
2026-05-05 18:19 -15.83753 -52.38796 2232 ft 132 kts 225°
2026-05-05 18:19 -15.84346 -52.39525 2180 ft 132 kts 233°
2026-05-05 18:19 -15.84832 -52.40316 2129 ft 126 kts 237°
2026-05-05 18:19 -15.85253 -52.41052 1993 ft 115 kts 239°
2026-05-05 18:20 -15.85661 -52.41740 1917 ft 108 kts 237°
2026-05-05 18:20 -15.86063 -52.42461 1832 ft 121 kts 241°
2026-05-05 18:20 -15.86670 -52.42959 1776 ft 112 kts 177°
2026-05-05 18:20 -15.87353 -52.42710 1785 ft 103 kts 138°
2026-05-05 18:21 -15.87764 -52.42131 1842 ft 99 kts 105°
2026-05-05 18:21 -15.87802 -52.41406 1748 ft 105 kts 77°
2026-05-05 18:21 -15.87507 -52.40721 1550 ft 103 kts 60°
2026-05-05 18:21 -15.87112 -52.40143 1357 ft 90 kts 51°
2026-05-05 18:22 -15.86723 -52.39646 1222 ft 91 kts 53°
2026-05-05 18:22 -15.86357 -52.39177 1160 ft 67 kts 53°
2026-05-05 18:22 -15.86227 -52.39007 1161 ft 1 kts 46°
2026-05-05 18:22 -15.86217 -52.39009 1161 ft 4 kts 289°
2026-05-05 18:23 -15.86290 -52.39085 1160 ft 23 kts 231°
2026-05-05 18:23 -15.86331 -52.39156 1160 ft 6 kts 248°
2026-05-05 18:23 -15.86287 -52.39203 1159 ft 15 kts 324°
2026-05-05 18:23 -15.86187 -52.39202 1160 ft 18 kts 50°
2026-05-05 18:24 -15.86104 -52.39095 1162 ft 20 kts 50°
2026-05-05 18:24 -15.86018 -52.38980 1160 ft 21 kts 51°
2026-05-05 18:24 -15.85929 -52.38971 1164 ft 13 kts 246°
2026-05-05 18:24 -15.85993 -52.39054 1165 ft 16 kts 233°
2026-05-05 18:25 -15.86057 -52.39149 1168 ft 15 kts 294°
2026-05-05 18:25 -15.86031 -52.39163 1171 ft 13 kts
2026-05-05 18:25 -15.85962 -52.39087 1171 ft 0 kts 139°